15min,AgWx,beryljct,423,10AUG2020:00:00:00,55.7,12.87,50.6,50.8,52.2,53.3,50.8,46,56,38,0.530,31.9,36.4,26.6,2.499,0.5,206,10,2.7,-0.00029,-0.00042,70.0,70.8,9,0,.,.,13.47,0.00,0.00
15min,AgWx,beryljct,423,10AUG2020:00:15:00,55.0,12.85,52.3,51.7,51.7,53.7,50.4,39,54,28,0.405,27.3,34.6,21.3,3.858,3.5,178,4.4,5.3,0.00012,0.00020,69.7,70.8,9,0,.,.,13.47,0.00,0.00
15min,AgWx,beryljct,423,10AUG2020:00:30:00,54.5,12.84,56.0,56.7,54.9,58.9,51.7,30,37,24,0.497,23.7,27.0,19.4,3.88,3.7,176,3.1,4.3,0.00020,0.00032,69.4,70.7,9,0,.,.,13.47,0.00,0.00
15min,AgWx,beryljct,423,10AUG2020:00:45:00,54.1,12.83,54.1,53.7,54.6,60.1,50.1,38,56,22,0.522,28.9,34.9,21.2,3.113,3.3,174,5.9,4.1,0.00012,0.00021,69.0,70.7,9,0,.,.,13.47,0.00,0.00
15min,AgWx,beryljct,423,10AUG2020:01:00:00,53.7,12.83,55.8,54.5,54.1,57.8,48.8,38,61,27,0.560,28.7,36.2,23.9,0.438,2.1,209,61,3.4,-0.00002,0.00001,68.7,70.6,9,0,.,.,13.47,0.00,0.00
15min,AgWx,beryljct,423,10AUG2020:01:15:00,53.2,12.81,49.7,50.8,52.0,54.9,49.8,47,58,29,0.633,32.1,36.3,23.1,3.091,1.6,163,63,3.9,-0.00012,-0.00014,68.4,70.5,9,0,.,.,13.47,0.00,0.00
15min,AgWx,beryljct,423,10AUG2020:01:30:00,52.6,12.8,49.3,48.1,48.4,50.7,46.3,55,65,46,0.569,32.8,35.2,30.3,2.28,2.2,181,12,3.6,-0.00007,-0.00006,68.1,70.4,9,0,.,.,13.47,0.00,0.00
15min,AgWx,beryljct,423,10AUG2020:01:45:00,52.0,12.8,47.0,49.1,49.8,51.7,48.2,41,51,24,0.528,26.3,31.7,16.0,0.943,2.1,171,16,2.9,-0.00003,-0.00001,67.8,70.3,9,0,.,.,13.47,0.00,0.00
15min,AgWx,beryljct,423,10AUG2020:02:00:00,51.2,12.79,46.2,45.4,45.9,48.9,44.7,67,81,48,0.739,35.6,39.4,29.4,0.329,1.0,260,62,3.0,-0.00021,-0.00029,67.5,70.2,9,0,.,.,13.47,0.00,0.00
15min,AgWx,beryljct,423,10AUG2020:02:15:00,50.4,12.78,46.4,45.8,46.1,46.9,45.4,55,71,43,0.573,30.6,37.0,25.3,0,0.1,257,0.0,1.2,-0.00032,-0.00050,67.3,70.1,9,0,.,.,13.48,0.00,0.00
15min,AgWx,beryljct,423,10AUG2020:02:30:00,49.7,12.77,47.3,47.1,46.4,47.3,45.5,43,64,31,0.380,24.7,34.1,17.6,0,0.1,257,0.0,0.9,-0.00033,-0.00052,67.0,70.0,9,0,.,.,13.48,0.00,0.00
15min,AgWx,beryljct,423,10AUG2020:02:45:00,49.1,12.74,45.0,45.3,46.2,47.4,44.9,45,60,27,0.620,25.5,32.4,15.0,3.113,1.7,106,24,3.9,-0.00009,-0.00010,66.7,69.9,9,0,.,.,13.48,0.00,0.00
15min,AgWx,beryljct,423,10AUG2020:03:00:00,48.5,12.74,44.8,44.9,44.3,45.3,43.2,63,77,47,0.548,32.0,36.6,26.0,1.929,1.2,137,32,3.0,-0.00017,-0.00023,66.4,69.8,9,0,.,.,13.48,0.00,0.00
15min,AgWx,beryljct,423,10AUG2020:03:15:00,47.8,12.74,44.0,44.0,44.1,44.9,43.2,64,71,53,0.551,32.4,34.5,28.7,1.184,1.7,153,14,2.6,-0.00013,-0.00016,66.2,69.7,9,0,.,.,13.48,0.00,0.00
15min,AgWx,beryljct,423,10AUG2020:03:30:00,47.3,12.74,44.1,44.1,44.3,44.9,43.7,60,72,46,0.646,31.2,35.6,25.5,0.702,1.5,185,16,2.6,-0.00014,-0.00017,65.9,69.6,9,0,.,.,13.48,0.00,0.00
15min,AgWx,beryljct,423,10AUG2020:03:45:00,46.8,12.7,44.5,43.3,43.6,44.3,42.8,57,75,38,0.482,29.1,35.7,19.1,0.11,0.7,166,3.1,1.7,-0.00022,-0.00032,65.6,69.5,9,0,.,.,13.48,0.00,0.00
15min,AgWx,beryljct,423,10AUG2020:04:00:00,46.1,12.71,40.6,41.0,41.2,43.6,40.1,71,81,46,0.577,32.5,35.9,24.0,1.885,2.4,326,31,4.6,-0.00010,-0.00011,65.3,69.4,9,0,.,.,13.48,0.00,0.00
15min,AgWx,beryljct,423,10AUG2020:04:15:00,45.4,12.7,42.1,41.7,40.8,42.1,39.3,60,75,42,0.379,27.4,32.3,20.5,1.293,1.2,326,4.9,3.0,-0.00016,-0.00021,65.1,69.3,9,0,.,.,13.48,0.00,0.00
15min,AgWx,beryljct,423,10AUG2020:04:30:00,44.9,12.68,43.0,42.8,42.3,43.3,41.3,46,53,41,0.422,22.9,26.0,19.9,1.008,1.2,326,0.1,1.8,-0.00015,-0.00019,64.8,69.1,9,0,.,.,13.48,0.00,0.00
15min,AgWx,beryljct,423,10AUG2020:04:45:00,44.6,12.69,42.6,42.7,43.1,43.6,42.5,52,63,44,0.589,26.4,31.1,22.9,0,0.2,324,4.5,1.1,-0.00030,-0.00046,64.5,69.0,9,0,.,.,13.48,0.00,0.00
15min,AgWx,beryljct,423,10AUG2020:05:00:00,44.2,12.68,40.5,40.2,41.1,42.7,40.2,63,70,56,0.484,29.2,31.7,25.9,3.047,2.5,184,16,3.5,0.00019,0.00033,64.3,68.9,9,0,.,.,13.48,0.00,0.00
15min,AgWx,beryljct,423,10AUG2020:05:15:00,43.8,12.67,40.7,40.8,40.2,40.9,39.5,62,68,57,0.572,28.1,30.9,25.9,0.921,2.2,191,5.1,4.4,0.00018,0.00031,64.0,68.8,9,0,.,.,13.48,0.00,0.00
15min,AgWx,beryljct,423,10AUG2020:05:30:00,43.4,12.67,41.8,41.6,41.4,42.3,40.7,61,67,52,0.556,28.8,31.2,26.0,0,0.2,193,0.0,1.2,0.00002,0.00004,63.8,68.6,9,0,.,.,13.48,0.00,0.00
15min,AgWx,beryljct,423,10AUG2020:05:45:00,43.0,12.67,42.8,42.5,42.1,42.8,41.5,68,80,58,0.743,32.3,36.9,28.0,0.088,0.0,190,0.0,0.1,0.00002,0.00002,63.6,68.5,9,2,.,.,13.48,0.00,0.00
15min,AgWx,beryljct,423,10AUG2020:06:00:00,43.0,12.68,44.3,44.3,43.2,44.3,42.5,68,84,55,0.561,33.2,37.8,28.9,0,0.0,193,1.0,0.5,0.00010,0.00011,63.3,68.4,9,17,.,.,13.47,0.00,0.00
15min,AgWx,beryljct,423,10AUG2020:06:15:00,43.6,12.68,43.9,43.8,44.0,44.3,43.6,62,67,55,0.647,31.8,33.4,28.9,0.592,0.0,194,0.0,0.6,0.00030,0.00032,63.1,68.3,10,53,.,.,13.48,0.00,0.00
15min,AgWx,beryljct,423,10AUG2020:06:30:00,44.9,12.67,44.1,43.7,43.6,44.7,42.8,72,80,63,0.682,35.1,37.3,33.1,0.745,1.1,183,13,2.9,0.00048,0.00056,62.8,68.1,9,92,.,.,13.47,0.00,0.00
15min,AgWx,beryljct,423,10AUG2020:06:45:00,46.6,12.67,46.2,45.9,44.8,45.9,43.7,65,73,58,0.645,33.8,36.8,31.0,0,1.4,189,1.6,2.4,0.00069,0.00081,62.6,68.0,9,133,.,.,13.48,0.00,0.00
15min,AgWx,beryljct,423,10AUG2020:07:00:00,48.9,12.67,51.6,49.8,48.4,49.8,45.9,58,66,48,0.723,34.3,38.4,29.5,0,0.8,154,16,3.3,0.00091,0.00103,62.4,67.9,9,179,.,.,13.47,0.00,0.00
15min,AgWx,beryljct,423,10AUG2020:07:15:00,51.9,12.7,52.0,51.7,51.0,51.7,50.0,59,65,53,0.779,37.3,39.7,34.8,1.995,1.1,136,7.1,2.2,0.00120,0.00136,62.2,67.8,9,228,.,.,13.47,0.00,0.00
15min,AgWx,beryljct,423,10AUG2020:07:30:00,54.9,12.72,54.3,54.2,53.2,54.6,51.8,54,63,47,0.754,36.9,39.9,34.4,1.447,0.8,134,0.4,2.1,0.00150,0.00167,62.0,67.7,9,279,.,.,13.47,0.00,0.00
15min,AgWx,beryljct,423,10AUG2020:07:45:00,58.0,12.8,56.5,56.5,55.2,56.5,54.2,54,63,47,0.834,38.8,42.2,35.3,0.986,0.9,133,0.2,1.7,0.00183,0.00203,61.9,67.5,9,332,.,.,13.47,0.00,0.00
15min,AgWx,beryljct,423,10AUG2020:08:00:00,60.9,12.91,59.3,59.2,57.8,59.2,56.5,52,60,47,0.892,40.4,44.3,36.9,0.767,0.8,133,0.1,1.4,0.00218,0.00240,61.7,67.4,9,385,.,.,13.46,0.00,0.00
15min,AgWx,beryljct,423,10AUG2020:08:15:00,63.9,13.15,62.7,62.5,60.8,62.5,59.2,52,57,46,1.050,43.0,46.1,40.4,0.504,0.7,133,0.1,1.3,0.00257,0.00282,61.7,67.3,9,438,.,.,13.46,0.00,0.00
15min,AgWx,beryljct,423,10AUG2020:08:30:00,66.9,13.44,65.1,64.6,63.5,64.6,62.5,48,57,39,0.874,43.2,47.4,39.1,0.241,1.0,133,0.1,1.6,0.00299,0.00331,61.6,67.2,9,490,.,.,13.45,0.00,0.00
15min,AgWx,beryljct,423,10AUG2020:08:45:00,69.7,13.65,67.8,67.7,66.1,67.7,64.7,48,55,43,1.065,45.7,49.5,42.2,1.578,1.1,130,1.5,1.6,0.00339,0.00374,61.6,67.0,9,539,.,.,13.45,0.00,0.00
15min,AgWx,beryljct,423,10AUG2020:09:00:00,72.6,13.76,70.0,70.2,68.9,70.3,67.8,43,54,32,1.079,45.5,51.1,38.9,1.381,1.4,128,0.9,2.0,0.00382,0.00424,61.6,66.9,9,586,.,.,13.45,0.00,0.00
15min,AgWx,beryljct,423,10AUG2020:09:15:00,75.7,14.06,72.7,72.5,71.5,73.1,70.2,40,47,34,0.928,45.9,50.9,40.9,0.504,0.6,124,0.9,1.5,0.00414,0.00450,61.6,66.8,9,630,.,.,13.44,0.00,0.00
15min,AgWx,beryljct,423,10AUG2020:09:30:00,78.6,14.01,74.1,74.1,73.5,74.2,72.5,37,46,27,1.032,45.2,51.5,38.0,1.206,1.1,121,3.3,2.3,0.00456,0.00502,61.8,66.7,9,675,.,.,13.44,0.00,0.00
15min,AgWx,beryljct,423,10AUG2020:09:45:00,80.9,13.98,75.3,75.4,74.8,75.5,73.9,38,47,30,1.088,47.7,52.7,41.0,1.206,1.6,134,5.0,2.4,0.00494,0.00550,62.0,66.7,9,716,.,.,13.43,0.00,0.00
15min,AgWx,beryljct,423,10AUG2020:10:00:00,82.9,13.96,77.3,77.4,76.8,77.4,75.4,36,48,25,0.963,47.8,55.7,38.4,2.17,1.6,109,11,3.0,0.00531,0.00591,62.3,66.6,9,756,.,.,13.43,0.00,0.00
15min,AgWx,beryljct,423,10AUG2020:10:15:00,84.3,13.94,78.5,79.2,78.1,79.2,77.3,39,49,28,1.313,50.8,57.7,42.2,3.99,2.6,89,7.5,4.2,0.00572,0.00647,62.6,66.5,9,794,.,.,13.43,0.00,0.00
15min,AgWx,beryljct,423,10AUG2020:10:30:00,85.6,13.88,80.4,80.9,80.5,82.1,79.1,30,44,15,1.146,45.4,56.4,29.5,3.332,3.5,91,11,5.5,0.00619,0.00719,63.0,66.4,9,826,.,.,13.43,0.00,0.00
15min,AgWx,beryljct,423,10AUG2020:10:45:00,86.6,13.82,85.5,83.8,81.9,83.8,80.9,29,44,16,0.839,46.3,57.7,31.4,7.673,3.9,75,35,11.3,0.00651,0.00760,63.5,66.4,9,855,.,.,13.43,0.00,0.00
15min,AgWx,beryljct,423,10AUG2020:11:00:00,87.4,13.79,83.8,84.8,83.8,85.2,81.4,21,32,12,0.756,39.3,49.2,25.9,6.883,5.6,234,43,16.4,0.00709,0.00861,64.0,66.3,9,880,.,.,13.43,0.00,0.00
15min,AgWx,beryljct,423,10AUG2020:11:15:00,88.0,13.81,85.4,84.9,84.3,85.7,83.3,21,30,13,0.998,39.6,48.3,28.5,2.17,8.2,188,16,17.6,0.00766,0.00966,64.6,66.3,9,905,.,.,13.42,0.00,0.00
15min,AgWx,beryljct,423,10AUG2020:11:30:00,88.6,13.77,86.3,86.5,84.9,86.5,83.8,21,31,13,0.766,40.0,50.1,28.7,4.319,4.8,203,37,14.6,0.00730,0.00870,65.2,66.3,9,923,.,.,13.42,0.00,0.00
15min,AgWx,beryljct,423,10AUG2020:11:45:00,89.0,13.39,85.2,84.6,85.2,86.5,84.3,19,25,13,0.580,38.0,45.3,29.4,1.973,8.3,188,21,15.8,0.00800,0.01008,65.9,66.3,9,942,.,.,13.42,0.00,0.00
15min,AgWx,beryljct,423,10AUG2020:12:00:00,89.3,13.39,84.7,83.7,84.5,86.5,82.7,22,30,13,0.842,40.8,49.1,28.8,8.79,6.2,184,47,12.8,0.00767,0.00932,66.6,66.3,9,955,.,.,13.42,0.00,0.00
15min,AgWx,beryljct,423,10AUG2020:12:15:00,89.3,13.37,88.0,86.9,85.2,86.9,83.8,19,26,13,1.000,38.6,46.9,29.5,3.551,4.8,220,21,10.0,0.00761,0.00907,67.3,66.4,9,966,.,.,13.42,0.00,0.00
15min,AgWx,beryljct,423,10AUG2020:12:30:00,89.7,13.35,84.2,85.4,85.8,87.0,84.6,21,29,14,0.817,41.0,50.2,30.9,14.27,7.2,198,32,19.8,0.00799,0.00984,68.1,66.4,9,971,.,.,13.43,0.00,0.00
15min,AgWx,beryljct,423,10AUG2020:12:45:00,89.5,13.39,83.0,83.4,83.9,85.4,82.5,26,33,17,1.214,45.2,50.8,35.7,4.45,7.3,225,30,13.6,0.00786,0.00964,68.9,66.5,9,973,.,.,13.42,0.00,0.00
15min,AgWx,beryljct,423,10AUG2020:13:00:00,89.4,13.38,84.9,85.1,85.1,86.1,83.5,21,31,13,0.730,40.0,50.2,29.9,8.09,7.1,200,29,13.5,0.00797,0.00981,69.6,66.6,9,973,.,.,13.43,0.00,0.00
15min,AgWx,beryljct,423,10AUG2020:13:15:00,89.6,13.39,83.7,84.0,84.6,86.3,83.8,23,32,14,0.833,42.1,51.3,30.8,4.932,6.5,233,21,12.1,0.00781,0.00951,70.4,66.7,9,970,.,.,13.42,0.00,0.00
15min,AgWx,beryljct,423,10AUG2020:13:30:00,89.4,13.38,88.4,86.4,84.7,86.5,83.9,21,32,13,0.613,40.5,51.4,29.1,3.595,6.4,221,27,14.7,0.00774,0.00945,71.2,66.9,9,958,.,.,13.43,0.00,0.00
15min,AgWx,beryljct,423,10AUG2020:13:45:00,89.9,13.34,86.9,85.5,85.3,87.6,83.5,22,32,12,0.848,41.2,53.1,28.9,0.438,5.2,184,57,12.5,0.00750,0.00899,72.0,67.0,9,945,.,.,13.43,0.00,0.00
15min,AgWx,beryljct,423,10AUG2020:14:00:00,90.3,13.32,83.1,84.3,86.0,87.3,84.3,18,22,13,0.845,37.7,43.0,29.5,7.453,9.0,180,24,13.3,0.00800,0.01021,72.7,67.2,9,927,.,.,13.43,0.00,0.00
15min,AgWx,beryljct,423,10AUG2020:14:15:00,90.4,13.41,83.3,84.3,85.3,86.8,83.5,21,29,15,1.020,41.1,48.9,32.4,6.73,6.7,174,33,13.0,0.00745,0.00919,73.5,67.3,9,908,.,.,13.42,0.00,0.00
15min,AgWx,beryljct,423,10AUG2020:14:30:00,90.2,13.31,86.7,86.3,84.4,86.5,83.2,23,28,17,0.813,42.4,47.8,35.1,5.502,7.7,228,35,14.2,0.00735,0.00921,74.2,67.5,9,883,.,.,13.43,0.01,0.00
15min,AgWx,beryljct,423,10AUG2020:14:45:00,90.6,13.29,86.6,87.2,85.9,87.2,83.5,20,32,13,0.797,40.1,52.3,28.0,4.713,5.1,171,49,11.0,0.00686,0.00831,74.8,67.7,9,857,.,.,13.43,0.00,0.00
15min,AgWx,beryljct,423,10AUG2020:15:00:00,91.1,13.3,84.9,85.3,85.9,87.3,83.7,20,35,12,0.738,39.6,54.7,28.0,9.36,7.4,200,19,16.9,0.00702,0.00888,75.5,67.9,9,827,.,.,13.42,0.00,0.00
15min,AgWx,beryljct,423,10AUG2020:15:15:00,91.1,13.29,85.4,84.1,84.5,86.2,83.2,24,33,16,0.953,42.9,51.5,33.0,9.95,6.5,225,19,11.7,0.00637,0.00797,76.1,68.1,9,772,.,.,13.43,0.00,0.00
15min,AgWx,beryljct,423,10AUG2020:15:30:00,91.3,13.32,84.7,85.4,85.4,86.7,84.2,21,28,14,0.871,41.1,48.6,30.4,5.963,5.4,215,25,12.3,0.00585,0.00729,76.6,68.4,9,717,.,.,13.43,0.00,0.00
15min,AgWx,beryljct,423,10AUG2020:15:45:00,91.7,13.31,84.5,84.6,85.3,86.9,83.9,22,29,16,0.877,42.1,48.6,34.2,3.047,5.6,199,24,12.5,0.00593,0.00739,77.1,68.6,9,723,.,.,13.43,0.00,0.00
15min,AgWx,beryljct,423,10AUG2020:16:00:00,91.7,13.27,84.9,82.8,83.8,86.1,81.2,26,35,18,0.851,44.7,51.4,36.2,8.94,5.8,249,17,11.1,0.00554,0.00692,77.6,68.9,9,681,.,.,13.43,0.00,0.00
15min,AgWx,beryljct,423,10AUG2020:16:15:00,90.9,13.3,82.4,84.0,83.5,85.3,82.5,21,26,14,0.825,38.9,44.3,29.3,5.459,9.3,222,19,16.8,0.00572,0.00774,78.0,69.1,9,618,.,.,13.43,0.00,0.00
15min,AgWx,beryljct,423,10AUG2020:16:30:00,90.0,13.28,84.0,83.3,83.0,84.8,80.8,24,32,13,1.190,42.1,50.5,29.0,5.546,6.7,238,16,14.7,0.00503,0.00655,78.3,69.3,9,591,.,.,13.43,0.00,0.00
15min,AgWx,beryljct,423,10AUG2020:16:45:00,89.5,13.28,84.8,84.4,82.8,84.4,80.9,24,34,14,0.668,41.9,49.8,30.2,2.499,6.9,225,17,14.1,0.00473,0.00626,78.6,69.6,9,545,.,.,13.43,0.00,0.00
15min,AgWx,beryljct,423,10AUG2020:17:00:00,89.0,13.33,80.9,81.5,83.0,84.6,81.5,22,30,15,1.068,40.0,49.1,32.1,4.099,6.8,229,17,13.0,0.00440,0.00592,78.7,69.8,9,497,.,.,13.43,0.00,0.00
15min,AgWx,beryljct,423,10AUG2020:17:15:00,88.2,13.33,83.7,81.5,82.0,83.3,80.6,21,29,15,0.686,37.5,46.5,30.0,8.62,9.1,224,14,16.1,0.00445,0.00632,78.9,70.0,9,448,.,.,13.44,0.00,0.00
15min,AgWx,beryljct,423,10AUG2020:17:30:00,87.3,13.33,80.5,82.3,81.8,83.4,80.4,21,26,15,0.761,37.4,42.6,30.5,7.147,8.2,215,13,12.9,0.00394,0.00565,79.0,70.3,9,397,.,.,13.43,0.00,0.00
15min,AgWx,beryljct,423,10AUG2020:17:45:00,86.6,13.34,83.4,82.7,82.0,83.6,80.7,19,25,15,0.591,36.0,41.6,30.6,13,8.3,209,18,13.8,0.00362,0.00534,79.0,70.5,9,346,.,.,13.43,0.00,0.00
15min,AgWx,beryljct,423,10AUG2020:18:00:00,86.0,13.18,80.4,81.8,82.6,84.1,81.6,16,21,13,0.634,32.6,38.2,28.0,8.7,10.1,198,18,19.7,0.00373,0.00583,78.9,70.7,10,295,.,.,13.43,0.00,0.00
15min,AgWx,beryljct,423,10AUG2020:18:15:00,85.1,13.09,80.0,79.7,80.5,81.8,79.7,19,22,16,0.705,34.5,37.8,31.0,9.27,7.9,221,10,10.7,0.00282,0.00443,78.9,70.9,9,245,.,.,13.43,0.00,0.00
15min,AgWx,beryljct,423,10AUG2020:18:30:00,84.2,13.07,81.3,79.1,80.1,81.8,78.7,18,21,14,0.599,32.6,36.3,27.3,9.36,8.8,217,11,15.6,0.00269,0.00445,78.7,71.1,9,197,.,.,13.44,0.00,0.00
15min,AgWx,beryljct,423,10AUG2020:18:45:00,83.1,13.04,79.2,79.2,79.6,80.4,78.2,18,22,15,0.598,31.8,36.0,28.7,9.49,8.1,207,10,12.3,0.00150,0.00202,78.4,71.2,10,149,.,.,13.44,0.00,0.00
15min,AgWx,beryljct,423,10AUG2020:19:00:00,82.1,13.03,78.6,78.8,78.9,79.5,77.6,17,20,16,0.627,30.9,34.1,28.9,6.379,7.8,202,13,11.4,0.00135,0.00184,78.2,71.4,10,105,.,.,13.43,0.00,0.00
15min,AgWx,beryljct,423,10AUG2020:19:15:00,80.4,13.02,75.7,75.6,76.9,78.7,75.6,19,21,17,0.569,31.5,34.6,29.3,6.423,5.6,212,8.5,7.4,0.00089,0.00128,77.9,71.6,9,60,.,.,13.44,0.00,0.00
15min,AgWx,beryljct,423,10AUG2020:19:30:00,78.3,13.01,74.2,74.0,74.6,75.8,73.9,19,21,18,0.562,29.9,31.6,28.0,6.029,6.2,221,6.5,8.3,0.00081,0.00116,77.5,71.7,9,17,.,.,13.44,0.00,0.00
15min,AgWx,beryljct,423,10AUG2020:19:45:00,76.3,13,71.5,72.5,73.9,75.0,72.4,19,22,17,0.564,29.2,31.5,27.2,4.801,5.8,216,6.9,8.4,0.00072,0.00104,77.2,71.8,9,3,.,.,13.44,0.00,0.00
15min,AgWx,beryljct,423,10AUG2020:20:00:00,74.3,12.98,72.5,71.7,71.9,72.7,71.1,21,23,19,0.539,30.1,32.5,27.9,5.305,5.1,218,6.2,5.8,0.00055,0.00083,76.9,71.9,9,0,.,.,13.45,0.00,0.00
15min,AgWx,beryljct,423,10AUG2020:20:15:00,72.5,12.97,71.5,70.4,70.8,71.7,69.9,22,25,20,0.522,29.8,32.6,28.1,5.656,5.0,223,3.6,5.7,0.00054,0.00080,76.5,72.0,9,0,.,.,13.45,0.00,0.00
15min,AgWx,beryljct,423,10AUG2020:20:30:00,71.0,12.97,69.8,70.2,69.9,71.4,68.3,23,27,20,0.567,30.2,33.6,27.6,4.472,4.6,219,6.0,6.0,0.00045,0.00069,76.1,72.1,9,0,.,.,13.45,0.00,0.00
15min,AgWx,beryljct,423,10AUG2020:20:45:00,69.8,12.96,70.8,70.7,70.0,71.8,68.1,22,28,18,0.509,29.4,34.3,24.9,4.604,4.1,213,5.3,4.9,0.00038,0.00060,75.7,72.1,9,0,.,.,13.45,0.00,0.00
15min,AgWx,beryljct,423,10AUG2020:21:00:00,68.7,12.95,59.8,61.4,67.8,70.9,61.4,26,37,20,0.664,31.2,36.2,27.6,3.376,4.1,210,24,5.1,0.00035,0.00055,75.3,72.2,9,0,.,.,13.45,0.00,0.00
15min,AgWx,beryljct,423,10AUG2020:21:15:00,66.9,12.93,62.0,61.9,61.5,68.1,58.1,30,43,17,0.489,29.4,36.2,21.1,1.885,4.2,159,7.9,5.6,0.00029,0.00045,74.9,72.2,9,0,.,.,13.45,0.00,0.00
15min,AgWx,beryljct,423,10AUG2020:21:30:00,64.7,12.93,56.5,57.5,59.3,61.9,57.1,35,46,26,0.599,31.4,36.6,26.3,7.41,4.8,153,8.3,7.5,0.00031,0.00045,74.5,72.2,9,0,.,.,13.45,0.00,0.00
15min,AgWx,beryljct,423,10AUG2020:21:45:00,62.7,12.93,63.3,61.1,57.8,61.1,54.9,34,46,21,0.384,29.0,34.8,20.8,7.103,5.4,167,12,7.3,0.00036,0.00051,74.1,72.2,9,0,.,.,13.45,0.00,0.00
15min,AgWx,beryljct,423,10AUG2020:22:00:00,61.8,12.92,64.2,63.2,62.2,63.2,60.7,22,28,19,0.411,22.6,28.5,19.7,4.691,5.6,175,6.1,7.4,0.00052,0.00073,73.7,72.2,9,0,.,.,13.45,0.00,0.00
15min,AgWx,beryljct,423,10AUG2020:22:15:00,61.4,12.92,65.8,64.7,62.3,64.7,59.7,23,29,19,0.422,23.5,27.6,21.0,5.568,5.1,174,9.5,6.6,0.00046,0.00066,73.4,72.2,9,0,.,.,13.46,0.00,0.00
15min,AgWx,beryljct,423,10AUG2020:22:30:00,61.2,12.91,65.2,64.5,63.7,65.5,62.3,21,26,19,0.398,23.0,27.6,20.9,5.634,5.3,172,8.7,6.4,0.00050,0.00073,73.0,72.2,9,0,.,.,13.46,0.00,0.00
15min,AgWx,beryljct,423,10AUG2020:22:45:00,61.0,12.89,52.1,53.9,61.3,65.3,53.9,26,42,19,0.591,25.2,31.9,21.4,7.015,5.9,160,12,7.3,0.00051,0.00071,72.6,72.2,9,0,.,.,13.46,0.00,0.00
15min,AgWx,beryljct,423,10AUG2020:23:00:00,59.3,12.9,56.7,54.5,52.3,54.5,51.4,42,46,34,0.488,29.8,31.4,26.5,6.072,6.3,152,7.7,7.2,0.00031,0.00042,72.2,72.1,9,0,.,.,13.46,0.01,0.00
15min,AgWx,beryljct,423,10AUG2020:23:15:00,58.0,12.88,50.4,54.4,57.0,59.2,54.4,30,43,23,0.625,25.4,32.6,20.8,3.42,4.8,168,4.5,6.2,0.00033,0.00048,71.9,72.1,9,0,.,.,13.46,0.00,0.00
15min,AgWx,beryljct,423,10AUG2020:23:30:00,56.8,12.88,52.5,51.5,51.0,53.8,49.0,48,55,42,0.546,32.1,33.8,29.2,4.647,4.5,161,8.7,6.4,0.00015,0.00022,71.5,72.0,9,0,.,.,13.46,0.00,0.00
15min,AgWx,beryljct,423,10AUG2020:23:45:00,55.5,12.87,53.6,53.1,51.6,54.3,48.2,43,61,30,0.525,29.4,35.3,22.9,1.381,2.0,229,46,3.9,-0.00006,-0.00004,71.2,72.0,9,0,.,.,13.46,0.00,0.00
15min,AgWx,bigpiney,439,10AUG2020:00:00:00,54.0,12.69,56.7,56.2,55.4,56.3,54.4,45,48,43,0.662,34.6,35.3,34.0,1.863,2.1,213,25,3.3,-0.00007,-0.00006,54.4,52.5,47,0,0,0.0,8.18,0.00,0.00
15min,AgWx,bigpiney,439,10AUG2020:00:15:00,53.8,12.68,55.6,56.0,56.4,56.9,55.1,42,45,41,0.663,33.9,34.1,33.6,2.74,2.6,274,18,4.6,0.00001,0.00005,54.4,52.5,47,0,0,0.0,8.18,0.00,0.00
15min,AgWx,bigpiney,439,10AUG2020:00:30:00,53.3,12.67,45.5,46.5,52.5,56.4,46.5,50,62,43,0.670,34.3,34.8,33.8,4.954,2.6,355,61,6.3,-0.00003,-0.00001,54.3,52.5,47,0,0,0.0,8.18,0.00,0.00
15min,AgWx,bigpiney,439,10AUG2020:00:45:00,52.3,12.67,42.1,43.0,44.2,46.9,41.6,69,76,63,0.693,34.6,35.5,33.8,5.261,4.8,185,20,5.8,0.00002,0.00005,54.3,52.4,47,0,0,0.0,8.18,0.00,0.00
15min,AgWx,bigpiney,439,10AUG2020:01:00:00,50.8,12.66,42.1,42.2,43.2,45.0,41.3,73,78,69,0.690,35.2,35.8,34.3,4.691,4.2,220,9.0,5.9,-0.00003,-0.00002,54.2,52.4,47,0,0,0.0,8.18,0.00,0.00
15min,AgWx,bigpiney,439,10AUG2020:01:15:00,49.4,12.65,45.8,45.3,45.5,52.6,41.2,67,78,51,0.691,35.1,35.9,33.7,5.239,4.9,224,24,7.4,0.00003,0.00007,54.2,52.4,47,0,0,0.0,8.18,0.00,0.00
15min,AgWx,bigpiney,439,10AUG2020:01:30:00,48.6,12.63,49.5,47.9,49.4,54.6,45.3,57,67,46,0.689,34.8,35.8,33.8,2.433,3.5,254,43,5.9,0.00002,0.00006,54.1,52.4,47,0,0,0.0,8.18,0.00,0.00
15min,AgWx,bigpiney,439,10AUG2020:01:45:00,48.3,12.64,46.3,46.3,48.4,53.6,45.6,58,64,48,0.668,34.2,35.1,33.4,2.039,2.0,327,53,4.5,-0.00010,-0.00012,54.1,52.5,47,0,0,0.0,8.18,0.00,0.00
15min,AgWx,bigpiney,439,10AUG2020:02:00:00,47.9,12.62,43.1,41.6,43.7,47.5,40.0,68,78,60,0.671,33.7,34.5,32.3,0,2.0,220,45,6.4,-0.00012,-0.00015,54.0,52.5,47,0,0,0.0,8.18,0.00,0.00
15min,AgWx,bigpiney,439,10AUG2020:02:15:00,47.2,12.61,47.0,47.0,45.7,47.8,41.9,62,74,56,0.630,33.3,34.4,32.2,0,1.0,321,57,3.6,-0.00021,-0.00029,54.0,52.4,47,0,0,0.0,8.18,0.00,0.00
15min,AgWx,bigpiney,439,10AUG2020:02:30:00,46.7,12.6,43.6,44.1,47.0,49.4,43.7,58,67,53,0.633,33.1,34.0,31.7,5.546,4.8,252,29,7.3,0.00008,0.00013,54.0,52.5,47,0,0,0.0,8.18,0.00,0.00
15min,AgWx,bigpiney,439,10AUG2020:02:45:00,46.3,12.58,41.1,40.5,42.7,44.4,40.5,70,75,65,0.645,33.5,34.6,32.2,4.45,4.5,229,18,7.1,-0.00000,0.00002,53.9,52.4,47,0,0,0.0,8.18,0.00,0.00
15min,AgWx,bigpiney,439,10AUG2020:03:00:00,45.6,12.59,44.4,43.4,41.0,43.4,40.2,73,76,66,0.634,33.0,34.0,32.3,4.713,4.7,220,11,6.2,-0.00001,0.00000,53.8,52.5,47,0,0,0.0,8.18,0.00,0.00
15min,AgWx,bigpiney,439,10AUG2020:03:15:00,45.0,12.57,40.9,40.2,41.7,44.1,39.4,68,73,64,0.612,32.0,33.1,31.3,4.165,4.4,216,6.4,5.8,0.00000,0.00002,53.8,52.4,47,0,0,0.0,8.18,0.00,0.00
15min,AgWx,bigpiney,439,10AUG2020:03:30:00,44.3,12.56,36.5,36.4,37.8,41.2,36.3,79,84,70,0.614,31.8,32.5,31.2,5.634,5.2,207,4.0,5.9,-0.00003,-0.00002,53.7,52.4,47,0,0,0.0,8.18,0.00,0.00
15min,AgWx,bigpiney,439,10AUG2020:03:45:00,43.4,12.55,40.2,39.6,37.4,39.6,36.4,82,84,76,0.629,32.3,33.1,31.7,0.438,3.8,248,39,6.4,-0.00008,-0.00008,53.6,52.4,47,0,0,0.0,8.18,0.00,0.00
15min,AgWx,bigpiney,439,10AUG2020:04:00:00,42.9,12.54,40.6,42.3,41.1,42.6,39.7,71,76,67,0.610,32.5,32.7,32.0,3.836,2.7,242,11,4.0,-0.00009,-0.00010,53.6,52.4,47,0,0,0.0,8.18,0.00,0.00
15min,AgWx,bigpiney,439,10AUG2020:04:15:00,42.4,12.52,38.8,38.2,40.1,42.7,37.9,72,78,66,0.607,31.8,33.0,30.0,1.951,2.7,236,13,4.1,-0.00009,-0.00010,53.5,52.4,47,0,0,0.0,8.18,0.00,0.00
15min,AgWx,bigpiney,439,10AUG2020:04:30:00,41.8,12.52,44.9,44.7,39.9,44.7,36.2,71,79,60,0.603,31.2,32.0,29.3,2.105,3.0,224,25,5.2,-0.00007,-0.00007,53.4,52.4,47,0,0,0.0,8.18,0.00,0.00
15min,AgWx,bigpiney,439,10AUG2020:04:45:00,41.1,12.5,42.8,41.2,42.5,44.7,39.5,64,70,59,0.561,31.0,32.2,28.8,2.258,2.6,251,27,6.2,-0.00007,-0.00007,53.4,52.4,47,0,0,0.0,8.18,0.00,0.00
15min,AgWx,bigpiney,439,10AUG2020:05:00:00,40.8,12.49,42.1,40.5,41.0,43.1,38.2,67,72,63,0.591,30.7,31.9,28.9,2.938,3.3,241,15,5.2,-0.00004,-0.00003,53.3,52.4,47,0,0,0.0,8.18,0.00,0.00
15min,AgWx,bigpiney,439,10AUG2020:05:15:00,40.6,12.49,40.5,39.4,39.7,41.0,37.8,70,75,67,0.592,30.7,31.3,29.6,0,2.0,237,19,3.9,-0.00012,-0.00014,53.3,52.3,47,1,0,0.0,8.18,0.00,0.00
15min,AgWx,bigpiney,439,10AUG2020:05:30:00,40.4,12.47,40.6,39.7,38.6,40.1,37.0,73,76,69,0.594,30.6,31.6,29.0,2.433,1.0,114,28,2.5,-0.00018,-0.00025,53.2,52.3,47,5,0,0.0,8.18,0.00,0.00
15min,AgWx,bigpiney,439,10AUG2020:05:45:00,40.3,12.5,40.5,40.8,41.2,41.9,39.8,68,72,67,0.594,31.6,32.0,31.2,0,1.4,69,8.6,3.2,-0.00028,-0.00023,53.1,52.3,47,29,0,0.0,8.18,0.00,0.00
15min,AgWx,bigpiney,439,10AUG2020:06:00:00,40.8,12.52,41.7,41.7,41.6,42.5,40.7,68,70,66,0.606,31.8,32.2,31.3,1.206,0.6,51,37,2.7,-0.00018,-0.00016,53.1,52.3,47,60,0,0.0,8.18,0.00,0.00
15min,AgWx,bigpiney,439,10AUG2020:06:15:00,41.7,12.52,41.7,42.2,41.7,42.4,41.4,69,72,68,0.642,32.3,33.3,31.7,1.469,0.7,277,44,1.5,0.00001,0.00004,53.0,52.3,47,95,0,0.0,8.18,0.00,0.00
15min,AgWx,bigpiney,439,10AUG2020:06:30:00,43.0,12.55,44.1,43.9,42.8,43.9,41.7,72,75,68,0.670,34.3,35.5,33.0,0,1.0,224,5.0,1.9,0.00023,0.00029,52.9,52.2,47,134,0,0.0,8.18,0.00,0.00
15min,AgWx,bigpiney,439,10AUG2020:06:45:00,44.9,12.55,46.0,45.9,45.1,46.0,43.9,67,69,64,0.683,34.7,35.4,33.9,0,0.0,199,11,0.6,0.00042,0.00045,52.8,52.2,47,176,0,0.0,8.18,0.00,0.00
15min,AgWx,bigpiney,439,10AUG2020:07:00:00,46.9,12.59,47.7,47.1,46.4,47.1,45.8,65,67,64,0.714,35.4,36.3,34.6,3.179,1.9,170,20,3.4,0.00079,0.00095,52.8,52.1,47,223,0,0.0,8.18,0.00,0.00
15min,AgWx,bigpiney,439,10AUG2020:07:15:00,49.0,12.68,50.4,50.0,48.6,50.0,47.1,63,67,60,0.735,36.7,38.2,35.3,2.653,2.2,216,22,3.2,0.00110,0.00130,52.7,52.2,47,270,0,0.0,8.18,0.00,0.00
15min,AgWx,bigpiney,439,10AUG2020:07:30:00,50.9,12.99,53.1,52.5,51.2,52.5,50.0,57,65,52,0.733,36.5,38.9,35.0,2.85,2.6,224,15,4.0,0.00147,0.00175,52.6,52.1,47,319,0,0.0,8.18,0.00,0.00
15min,AgWx,bigpiney,439,10AUG2020:07:45:00,52.6,13.39,55.1,55.2,54.0,55.2,52.5,51,55,47,0.716,36.4,38.3,34.5,2.017,2.4,195,16,3.9,0.00184,0.00216,52.5,52.1,47,369,0,0.0,8.18,0.00,0.00
15min,AgWx,bigpiney,439,10AUG2020:08:00:00,54.5,13.6,57.2,57.5,56.2,57.5,55.2,46,52,43,0.731,35.6,38.3,34.0,0,0.7,228,30,2.4,0.00209,0.00230,52.5,52.1,47,418,0,0.0,8.18,0.00,0.00
15min,AgWx,bigpiney,439,10AUG2020:08:15:00,57.0,13.79,60.1,59.3,58.3,59.3,57.4,45,50,42,0.760,37.1,40.3,35.3,0,0.7,275,65,2.5,0.00245,0.00269,52.4,52.1,47,466,0,0.0,8.18,0.00,0.00
15min,AgWx,bigpiney,439,10AUG2020:08:30:00,59.7,14.38,60.9,61.3,60.2,61.3,59.4,43,46,41,0.801,37.6,39.4,36.2,0,0.5,123,45,1.8,0.00281,0.00306,52.3,52.1,47,515,0,0.0,8.18,0.00,0.00